CZ-2C R/B, 28222

Orbit data source: Space-Track

CZ-2C R/B, 28222 is space debris in SSO originally from a launch on Sun, 18 Apr 2004 UTC launched from the Xichang Space Center, China (XSC). Debris objects in space refer to the collection of defunct objects orbiting the Earth. Examples of debris include non-operational satellites, rocket bodies, and fragments generated from explosions, collisions, or faulty payload assembly.

Loading next visibility...
Identifier
28222, 2004-012C
Orbit
SSO
Country
Flag of CNCN / PRC
Related business
Manufacturer
CALT
Mission
Spacecraft
Bus & Motor
CZ-2 STAGE 2, Unknown motor
Mass
~3,800 kg wet, ~3,800 kg dry
Launch date (UTC)
2004-04-18 (22 years ago)
Launch vehicle
Unknown
Launch site
Xichang Space Center, China (XSC)
Object type
Payload
Rocket body
Debris
Shape & HBR
Cyl, 4.2 m
Radar Cross Section
26.048 m², Large (>1 m²)

Expand to show TLE details & history
Last TLE update: 13 hours ago

TLE from 13 hours ago
0 CZ-2C R/B
1 28222U 04012C   26034.60243054  .00051501  00000-0  61698-3 0  9997
2 28222  97.7314  96.7583 0016437  77.6197 282.6898 15.60633034198951
Epoch: 2026-02-03T14:27Z
TLE epoch observation values (Epoch: 2026-02-03T14:27:29.998Z)
Latitude
-0.00001°
Longitude
106.1023°
Altitude
386.537 km
Speed
7.679 km/s
True Right ascension
06h 27m 01s
True Declination
0° 00' 00"
Sunlit
Object was in full shadow at epoch
Visualization orbit readout
Latitude
Unknown
Longitude
Unknown
Altitude
Unknown
Speed
Unknown
Apparent Right ascension
Unknown
Apparent Declination
Unknown
Sunlit
N/A
Visualization observer readout
Local Sidereal Time
05:39:20
Azimuth
Unknown
Elevation
Unknown
Doppler factor
Unknown
Orbital elements
Apogee altitude
393.867 km
Perigee altitude
371.641 km
Semi-major axis
6,760.891 km
Eccentricity
0.00164
Inclination
97.7314°
RAAN
96.7583°
Arg. of periapsis
77.6197°
True anomaly
282.50596°
Mean anomaly
282.6898°
Eccentric anomaly
282.59789°
Mean motion
3.90425 °/min
Orbital period
92.21 mins
BSTAR
0.00061698
Loading maneuver chart data...
Computing Atmospheric mass density...
Loading historical data...
Loading historical data...
Loading historical data...
Loading historical data...
Loading historical data...
Loading historical data...
Loading historical data...

Documentation

Showing up to 5 results
|